STARLINK-35312, 65866

Orbit data source: Space-Track

STARLINK-35312, 65866 is a payload satellite owned by SpaceX/Seattle (US) in LEO that was launched on Fri, 03 Oct 2025 UTC via an FALCON 9 launch vehicle from the Air Force Western Test Range (AFWTR). Payload-class satellites include a variety of spacecraft equipped with specific instruments for various scientific and technological missions. These include communications satellites like Starlink; space stations such as the ISS; scientific satellites like the Hubble; Earth observation satellites from companies like Planet Labs, Umbra, and HawkEye 360; GPS; miniature CubeSats for education and research; and military/defense satellites.

Loading next visibility...
Identifier
65866, 2025-223N
Orbit
LEO
Country
Flag of USUS
Related business
Manufacturer
SpaceX/Seattle
Mission
Operational spacecraft
Bus & Motor
STARLINK V2MO, Unknown motor
Mass
575 kg wet, ~530 kg dry
Launch date (UTC)
2025-10-03 (2 weeks ago)
Launch vehicle
FALCON 9
Launch site
Air Force Western Test Range (AFWTR)
Object type
Payload
Rocket body
Debris
Shape & HBR
Unknown
Radar Cross Section
RCS unknown

Expand to show TLE details & history
Last TLE update: 11 hours ago

TLE from 11 hours ago
0 STARLINK-35312
1 65866U 25223N   25291.01714716  .01164476  00000-0  70645-2 0  9994
2 65866  53.1522 241.0082 0014858 246.2971 113.6490 15.74128661  2305
Epoch: 2025-10-18T00:24Z
TLE epoch observation values (Epoch: 2025-10-18T00:24:41.514Z)
Latitude
-0.00004°
Longitude
-151.91901°
Altitude
352.048 km
Speed
7.697 km/s
True Right ascension
16h 04m 01s
True Declination
0° 00' 00"
Sunlit
Object was in daylight at epoch
Visualization orbit readout
Latitude
Unknown
Longitude
Unknown
Altitude
Unknown
Speed
Unknown
Apparent Right ascension
Unknown
Apparent Declination
Unknown
Sunlit
N/A
Visualization observer readout
Local Sidereal Time
05:50:59
Azimuth
Unknown
Elevation
Unknown
Doppler factor
Unknown
Orbital elements
Apogee altitude
357.367 km
Perigee altitude
337.381 km
Semi-major axis
6,725.511 km
Eccentricity
0.00149
Inclination
53.1522°
RAAN
241.0082°
Arg. of periapsis
246.2971°
True anomaly
113.80485°
Mean anomaly
113.649°
Eccentric anomaly
113.72693°
Mean motion
3.93509 °/min
Orbital period
91.48 mins
BSTAR
0.0070645
Loading maneuver chart data...
Computing Atmospheric mass density...
Loading historical data...
Loading historical data...
Loading historical data...
Loading historical data...
Loading historical data...
Loading historical data...
Loading historical data...

Documentation

Showing up to 5 results
|